sat.trackr.live / text

‹ back to catalog

STARLINK-30191

NORAD 57413 · 2023-102K

PAYLOAD ACTIVE UNKNOWN

§ Identity

Operator
Country
US
Launch date
2023-07-20
Launch site
AFWTR
Launch vehicle
Mass (kg)
RCS (m²)

Purposes: comms

External: N2YO · Heavens-Above · Gunter

§ Orbital elements

Epoch: 2026-05-24T23:15:30.264192Z

Period
94.27 min
Inclination
43.0033°
Eccentricity
0.0001142
Mean motion
15.27574329 rev/d
Perigee alt
482.3 km
Apogee alt
483.8 km
Semi-major
6,861.2 km
B*
4.0862e-5
RAAN
115.8625°
Arg perigee
281.7036°
Mean anomaly
78.3687°
Rev number
15,863

§ Raw data

STARLINK-301911 57413U 23102K   26144.96910028  .00000862  00000+0  40862-4 0  99992 57413  43.0033 115.8625 0001142 281.7036  78.3687 15.27574329158635

JSON: /api/v1/satellites/57413 · /tle

For live sub-satellite position, see the globe view (requires WebGL).

§ Visibility from observer

Set your observer location to see the next 7 days of passes ≥ 10°. The values pass through the URL so the page stays shareable.

No JS? Fill the form by hand. The geolocation button needs JavaScript.